RYR4RZ LFBO-EGSS

Flight info

Callsign RYR4RZ
Flight time 1h 17m
Altitude 34000
Route LACOU DCT CHALA DCT TUPAR UN861 DIKRO UM185 TELTU
Aircraft B738/M-SDE2E3FGHIRWXY/LB1

Departure

Time 2026-05-05 14:51
Airport Toulouse-Blagnac Airport (LFBO)

Arrival

Time 2026-05-05 16:09
Airport London Stansted Airport (EGSS)
Time Latitude Longitude Altitude Speed Heading
2026-05-05 14:48 43.62017 1.37863 503 ft 16 kts 144°
2026-05-05 14:49 43.61930 1.37954 503 ft 15 kts 142°
2026-05-05 14:49 43.61847 1.38044 503 ft 15 kts 140°
2026-05-05 14:49 43.61765 1.38124 503 ft 14 kts 146°
2026-05-05 14:49 43.61679 1.38172 503 ft 14 kts 195°
2026-05-05 14:50 43.61615 1.38089 503 ft 12 kts 234°
2026-05-05 14:50 43.61600 1.37984 502 ft 9 kts 314°
2026-05-05 14:50 43.61602 1.37981 502 ft 0 kts 317°
2026-05-05 14:51 43.61707 1.37871 502 ft 53 kts 323°
2026-05-05 14:51 43.62193 1.37369 503 ft 119 kts 323°
2026-05-05 14:51 43.62966 1.36529 737 ft 153 kts 320°
2026-05-05 14:51 43.63870 1.35587 1290 ft 167 kts 319°
2026-05-05 14:52 43.64768 1.34619 2253 ft 166 kts 319°
2026-05-05 14:52 43.65703 1.33567 2853 ft 183 kts 318°
2026-05-05 14:52 43.66773 1.32383 3100 ft 211 kts 319°
2026-05-05 14:52 43.67993 1.31047 3314 ft 237 kts 320°
2026-05-05 14:53 43.69320 1.29597 3813 ft 252 kts 320°
2026-05-05 14:53 43.70703 1.28087 4675 ft 255 kts 320°
2026-05-05 14:53 43.72197 1.26725 5486 ft 263 kts 337°
2026-05-05 14:53 43.73988 1.26072 6324 ft 269 kts 344°
2026-05-05 14:54 43.75822 1.25485 7126 ft 272 kts 344°
2026-05-05 14:54 43.77671 1.24821 7861 ft 277 kts 337°
2026-05-05 14:54 43.79460 1.23784 8607 ft 281 kts 332°
2026-05-05 14:54 43.81236 1.22596 9375 ft 286 kts 331°
2026-05-05 14:55 43.83033 1.21368 10120 ft 290 kts 331°
2026-05-05 14:55 43.84877 1.20110 10436 ft 312 kts 331°
2026-05-05 14:55 43.86900 1.18741 10627 ft 335 kts 332°
2026-05-05 14:55 43.89069 1.17287 10814 ft 357 kts 332°
2026-05-05 14:56 43.91349 1.15773 11289 ft 368 kts 332°
2026-05-05 14:56 43.93679 1.14236 11956 ft 373 kts 332°
2026-05-05 14:56 43.96036 1.12686 12705 ft 376 kts 332°
2026-05-05 14:56 43.98409 1.11124 13420 ft 380 kts 332°
2026-05-05 14:57 44.00814 1.09541 14040 ft 385 kts 332°
2026-05-05 14:57 44.03215 1.07959 14636 ft 389 kts 332°
2026-05-05 14:57 44.05674 1.06336 15268 ft 393 kts 332°
2026-05-05 14:57 44.08154 1.04698 15880 ft 397 kts 332°
2026-05-05 14:58 44.10661 1.03040 16472 ft 401 kts 332°
2026-05-05 14:58 44.13189 1.01367 17087 ft 405 kts 332°
2026-05-05 14:58 44.15749 0.99672 17676 ft 409 kts 332°
2026-05-05 14:58 44.18330 0.97960 18249 ft 413 kts 332°
2026-05-05 14:59 44.20934 0.96231 18762 ft 417 kts 332°
2026-05-05 14:59 44.23527 0.94509 19267 ft 420 kts 332°
2026-05-05 14:59 44.26175 0.92748 19783 ft 423 kts 332°
2026-05-05 14:59 44.28843 0.90972 20278 ft 427 kts 332°
2026-05-05 15:00 44.31524 0.89154 20751 ft 430 kts 331°
2026-05-05 15:00 44.33297 0.87905 21081 ft 432 kts 330°
2026-05-05 15:00 44.36891 0.85316 21718 ft 436 kts 330°
2026-05-05 15:00 44.39592 0.83355 22182 ft 440 kts 330°
2026-05-05 15:01 44.42286 0.81398 22616 ft 443 kts 330°
2026-05-05 15:01 44.45032 0.79408 23059 ft 447 kts 330°
2026-05-05 15:01 44.47801 0.77406 23488 ft 450 kts 330°
2026-05-05 15:01 44.50593 0.75389 23858 ft 453 kts 330°
2026-05-05 15:02 44.53399 0.73363 24254 ft 454 kts 330°
2026-05-05 15:02 44.56213 0.71330 24641 ft 456 kts 330°
2026-05-05 15:02 44.59044 0.69283 25005 ft 459 kts 330°
2026-05-05 15:02 44.61886 0.67225 25356 ft 461 kts 330°
2026-05-05 15:03 44.64739 0.65157 25704 ft 463 kts 330°
2026-05-05 15:03 44.67604 0.63078 26052 ft 465 kts 330°
2026-05-05 15:03 44.70486 0.60984 26373 ft 467 kts 330°
2026-05-05 15:03 44.73342 0.58906 26692 ft 469 kts 330°
2026-05-05 15:04 44.76247 0.56791 27019 ft 471 kts 330°
2026-05-05 15:04 44.79164 0.54664 27344 ft 473 kts 330°
2026-05-05 15:04 44.82094 0.52525 27654 ft 475 kts 330°
2026-05-05 15:04 44.85036 0.50375 27956 ft 477 kts 330°
2026-05-05 15:05 44.90950 0.46046 28584 ft 480 kts 330°
2026-05-05 15:05 44.93913 0.43873 29020 ft 479 kts 330°
2026-05-05 15:05 44.96859 0.41711 29508 ft 476 kts 330°
2026-05-05 15:06 44.99756 0.39583 29944 ft 475 kts 330°
2026-05-05 15:06 45.02681 0.37430 30266 ft 475 kts 330°
2026-05-05 15:06 45.05612 0.35270 30564 ft 475 kts 330°
2026-05-05 15:06 45.08536 0.33113 30889 ft 474 kts 330°
2026-05-05 15:07 45.11452 0.30960 31216 ft 473 kts 330°
2026-05-05 15:07 45.14368 0.28803 31531 ft 472 kts 330°
2026-05-05 15:07 45.17277 0.26650 31843 ft 472 kts 330°
2026-05-05 15:07 45.20184 0.24496 32170 ft 471 kts 330°
2026-05-05 15:08 45.23085 0.22343 32469 ft 471 kts 330°
2026-05-05 15:08 45.25950 0.20215 32742 ft 470 kts 330°
2026-05-05 15:08 45.28841 0.18064 33046 ft 470 kts 330°
2026-05-05 15:08 45.31738 0.15907 33329 ft 470 kts 330°
2026-05-05 15:09 45.34629 0.13753 33581 ft 470 kts 330°
2026-05-05 15:09 45.37527 0.11605 33863 ft 469 kts 331°
2026-05-05 15:09 45.40443 0.09480 33906 ft 473 kts 332°
2026-05-05 15:10 45.46312 0.05243 33915 ft 472 kts 332°
2026-05-05 15:10 45.52103 0.01051 33915 ft 468 kts 332°
2026-05-05 15:11 45.57887 -0.03159 33915 ft 466 kts 332°
2026-05-05 15:11 45.63658 -0.07376 33920 ft 467 kts 332°
2026-05-05 15:12 45.69488 -0.11648 33922 ft 474 kts 332°
2026-05-05 15:12 45.75387 -0.15980 33906 ft 478 kts 332°
2026-05-05 15:13 45.81270 -0.20309 33899 ft 479 kts 332°
2026-05-05 15:13 45.87186 -0.24672 33880 ft 476 kts 332°
2026-05-05 15:14 45.93033 -0.28995 33879 ft 470 kts 332°
2026-05-05 15:14 45.98842 -0.33302 33874 ft 468 kts 332°
2026-05-05 15:15 46.04569 -0.37557 33881 ft 466 kts 332°
2026-05-05 15:15 46.10347 -0.41861 33891 ft 470 kts 332°
2026-05-05 15:16 46.16178 -0.46214 33886 ft 474 kts 332°
2026-05-05 15:16 46.22061 -0.50616 33882 ft 479 kts 332°
2026-05-05 15:17 46.27968 -0.55048 33881 ft 483 kts 333°
2026-05-05 15:17 46.33884 -0.59497 33865 ft 475 kts 333°
2026-05-05 15:18 46.39696 -0.63876 33872 ft 469 kts 334°
2026-05-05 15:18 46.45823 -0.66936 33864 ft 466 kts 352°
2026-05-05 15:19 46.52234 -0.68036 33866 ft 464 kts 355°
2026-05-05 15:19 46.58625 -0.68995 33872 ft 466 kts 355°
2026-05-05 15:20 46.65105 -0.70028 33870 ft 471 kts 355°
2026-05-05 15:20 46.71645 -0.71121 33865 ft 475 kts 354°
2026-05-05 15:21 46.78219 -0.72236 33854 ft 475 kts 354°
2026-05-05 15:21 46.84684 -0.73337 33847 ft 467 kts 355°
2026-05-05 15:22 46.91118 -0.74431 33857 ft 465 kts 355°
2026-05-05 15:22 46.97549 -0.75525 33871 ft 466 kts 355°
2026-05-05 15:23 47.02909 -0.76439 33849 ft 467 kts 355°
2026-05-05 15:23 47.10412 -0.77722 33852 ft 467 kts 355°
2026-05-05 15:24 47.16863 -0.78829 33861 ft 467 kts 355°
2026-05-05 15:24 47.22232 -0.79752 33861 ft 468 kts 355°
2026-05-05 15:25 47.28696 -0.80865 33860 ft 468 kts 355°
2026-05-05 15:25 47.36207 -0.82163 33855 ft 467 kts 355°
2026-05-05 15:26 47.42648 -0.83279 33852 ft 466 kts 355°
2026-05-05 15:26 47.47989 -0.84206 33857 ft 465 kts 355°
2026-05-05 15:27 47.54407 -0.85320 33856 ft 464 kts 356°
2026-05-05 15:27 47.60829 -0.86180 33866 ft 463 kts 358°
2026-05-05 15:28 47.67248 -0.86901 33864 ft 463 kts 358°
2026-05-05 15:28 47.73623 -0.87638 33869 ft 463 kts 358°
2026-05-05 15:29 47.80056 -0.88413 33875 ft 464 kts 358°
2026-05-05 15:29 47.86501 -0.89205 33877 ft 465 kts 358°
2026-05-05 15:30 47.94012 -0.90133 33885 ft 466 kts 358°
2026-05-05 15:30 47.99392 -0.90798 33879 ft 467 kts 358°
2026-05-05 15:31 48.05877 -0.91600 33880 ft 468 kts 357°
2026-05-05 15:31 48.12378 -0.92407 33882 ft 469 kts 357°
2026-05-05 15:32 48.18894 -0.93218 33884 ft 470 kts 358°
2026-05-05 15:32 48.25413 -0.94031 33889 ft 470 kts 357°
2026-05-05 15:33 48.31894 -0.94841 33882 ft 470 kts 358°
2026-05-05 15:33 48.38400 -0.95657 33889 ft 468 kts 358°
2026-05-05 15:34 48.44883 -0.96472 33890 ft 467 kts 358°
2026-05-05 15:34 48.51354 -0.97288 33894 ft 466 kts 358°
2026-05-05 15:35 48.57770 -0.98098 33894 ft 465 kts 358°
2026-05-05 15:35 48.64222 -0.98915 33897 ft 465 kts 357°
2026-05-05 15:36 48.70677 -0.99734 33897 ft 466 kts 357°
2026-05-05 15:36 48.77136 -1.00557 33893 ft 466 kts 357°
2026-05-05 15:37 48.83561 -1.01377 33898 ft 467 kts 357°
2026-05-05 15:37 48.90037 -1.02205 33905 ft 467 kts 357°
2026-05-05 15:38 48.96516 -1.03036 33907 ft 468 kts 357°
2026-05-05 15:38 49.03013 -1.03872 33907 ft 469 kts 356°
2026-05-05 15:39 49.09510 -1.04710 33912 ft 469 kts 356°
2026-05-05 15:39 49.15979 -1.05546 33911 ft 470 kts 356°
2026-05-05 15:40 49.22497 -1.06391 33917 ft 470 kts 356°
2026-05-05 15:40 49.29017 -1.07239 33919 ft 470 kts 356°
2026-05-05 15:41 49.35532 -1.08088 33924 ft 470 kts 356°
2026-05-05 15:41 49.42041 -1.08939 33924 ft 469 kts 356°
2026-05-05 15:42 49.48502 -1.09785 33929 ft 468 kts 356°
2026-05-05 15:42 49.54989 -1.10485 33914 ft 467 kts
2026-05-05 15:42 49.58183 -1.09700 33943 ft 463 kts 18°
2026-05-05 15:43 49.61164 -1.07892 33923 ft 460 kts 30°
2026-05-05 15:43 49.66234 -1.02103 33930 ft 457 kts 41°
2026-05-05 15:44 49.71217 -0.96014 33920 ft 457 kts 39°
2026-05-05 15:44 49.76769 -0.91248 33931 ft 461 kts 20°
2026-05-05 15:45 49.83064 -0.89406 33940 ft 463 kts
2026-05-05 15:45 49.89461 -0.88660 33919 ft 465 kts
2026-05-05 15:46 49.95905 -0.87803 33921 ft 465 kts
2026-05-05 15:46 50.02358 -0.86864 33632 ft 470 kts
2026-05-05 15:46 50.05623 -0.86399 33025 ft 470 kts
2026-05-05 15:47 50.08869 -0.85941 32348 ft 468 kts
2026-05-05 15:47 50.12112 -0.85485 31655 ft 468 kts
2026-05-05 15:47 50.15317 -0.85033 30939 ft 468 kts
2026-05-05 15:47 50.18560 -0.84574 30208 ft 469 kts
2026-05-05 15:48 50.21817 -0.84111 29464 ft 469 kts
2026-05-05 15:48 50.25048 -0.83650 28921 ft 463 kts
2026-05-05 15:48 50.28236 -0.83196 28367 ft 457 kts
2026-05-05 15:48 50.31383 -0.82746 27819 ft 452 kts
2026-05-05 15:49 50.34502 -0.82298 27279 ft 447 kts
2026-05-05 15:49 50.37546 -0.81854 26736 ft 443 kts
2026-05-05 15:49 50.40598 -0.81407 26215 ft 438 kts
2026-05-05 15:49 50.43621 -0.80962 25684 ft 434 kts
2026-05-05 15:50 50.46619 -0.80522 25167 ft 430 kts
2026-05-05 15:50 50.49585 -0.80085 24656 ft 426 kts
2026-05-05 15:50 50.52521 -0.79653 24157 ft 422 kts
2026-05-05 15:50 50.55435 -0.79224 23654 ft 419 kts
2026-05-05 15:51 50.58325 -0.78799 23089 ft 415 kts
2026-05-05 15:51 50.61144 -0.78383 22543 ft 410 kts
2026-05-05 15:51 50.63968 -0.77970 22039 ft 405 kts
2026-05-05 15:51 50.66764 -0.77568 21526 ft 401 kts
2026-05-05 15:52 50.69530 -0.77171 21027 ft 397 kts
2026-05-05 15:52 50.72272 -0.76777 20523 ft 394 kts
2026-05-05 15:52 50.74990 -0.76385 20025 ft 391 kts
2026-05-05 15:52 50.77689 -0.75995 19547 ft 388 kts
2026-05-05 15:53 50.80361 -0.75596 19057 ft 385 kts
2026-05-05 15:53 50.82923 -0.74523 18796 ft 377 kts 21°
2026-05-05 15:53 50.85297 -0.72997 18575 ft 373 kts 22°
2026-05-05 15:53 50.87722 -0.71387 18363 ft 385 kts 23°
2026-05-05 15:54 50.90203 -0.69735 18141 ft 388 kts 22°
2026-05-05 15:54 50.92698 -0.68086 17877 ft 387 kts 22°
2026-05-05 15:54 50.95167 -0.66466 17643 ft 383 kts 22°
2026-05-05 15:54 50.97620 -0.64867 17416 ft 379 kts 22°
2026-05-05 15:55 51.00050 -0.63288 17198 ft 377 kts 22°
2026-05-05 15:55 51.02472 -0.61716 16979 ft 375 kts 22°
2026-05-05 15:55 51.04877 -0.60155 16770 ft 373 kts 22°
2026-05-05 15:55 51.07277 -0.58596 16565 ft 372 kts 22°
2026-05-05 15:56 51.09638 -0.57061 16364 ft 372 kts 22°
2026-05-05 15:56 51.12040 -0.55498 16147 ft 372 kts 22°
2026-05-05 15:56 51.14432 -0.53939 15940 ft 372 kts 22°
2026-05-05 15:56 51.16831 -0.52374 15724 ft 372 kts 22°
2026-05-05 15:57 51.19223 -0.50812 15510 ft 372 kts 22°
2026-05-05 15:57 51.21614 -0.49248 15305 ft 372 kts 22°
2026-05-05 15:57 51.24005 -0.47683 15083 ft 371 kts 22°
2026-05-05 15:57 51.26359 -0.46140 14884 ft 370 kts 22°
2026-05-05 15:58 51.28736 -0.44581 14667 ft 369 kts 22°
2026-05-05 15:58 51.31064 -0.43051 14378 ft 356 kts 22°
2026-05-05 15:58 51.33313 -0.41573 13970 ft 345 kts 22°
2026-05-05 15:58 51.35487 -0.40141 13697 ft 329 kts 22°
2026-05-05 15:59 51.37141 -0.39052 13404 ft 320 kts 22°
2026-05-05 15:59 51.39193 -0.37699 12759 ft 319 kts 22°
2026-05-05 15:59 51.41241 -0.36347 12141 ft 317 kts 22°
2026-05-05 15:59 51.43267 -0.35008 11605 ft 313 kts 22°
2026-05-05 16:00 51.45224 -0.33613 11081 ft 311 kts 25°
2026-05-05 16:00 51.47198 -0.32113 10160 ft 320 kts 24°
2026-05-05 16:00 51.49356 -0.31126 9173 ft 327 kts
2026-05-05 16:00 51.51504 -0.29928 8132 ft 333 kts 33°
2026-05-05 16:01 51.53218 -0.27443 7504 ft 326 kts 44°
2026-05-05 16:01 51.54815 -0.24995 7187 ft 311 kts 42°
2026-05-05 16:01 51.56379 -0.22718 6889 ft 297 kts 41°
2026-05-05 16:01 51.57891 -0.20563 6610 ft 284 kts 40°
2026-05-05 16:02 51.59348 -0.18508 6414 ft 273 kts 40°
2026-05-05 16:02 51.60738 -0.16555 6154 ft 265 kts 40°
2026-05-05 16:02 51.62113 -0.14626 5882 ft 260 kts 40°
2026-05-05 16:02 51.63465 -0.12731 5624 ft 256 kts 40°
2026-05-05 16:03 51.64799 -0.10863 5383 ft 253 kts 40°
2026-05-05 16:03 51.66127 -0.09001 5129 ft 253 kts 40°
2026-05-05 16:03 51.67444 -0.07150 4866 ft 250 kts 40°
2026-05-05 16:03 51.68749 -0.05318 4619 ft 248 kts 40°
2026-05-05 16:04 51.70046 -0.03495 4388 ft 248 kts 40°
2026-05-05 16:04 51.71356 -0.01652 4104 ft 250 kts 40°
2026-05-05 16:04 51.72643 0.00162 3846 ft 248 kts 40°
2026-05-05 16:04 51.73923 0.01964 3584 ft 240 kts 41°
2026-05-05 16:05 51.75166 0.03704 3315 ft 232 kts 38°
2026-05-05 16:05 51.76397 0.05305 3123 ft 221 kts 39°
2026-05-05 16:05 51.77520 0.06908 2874 ft 211 kts 42°
2026-05-05 16:05 51.78565 0.08480 2658 ft 200 kts 43°
2026-05-05 16:06 51.79531 0.09942 2534 ft 182 kts 43°
2026-05-05 16:06 51.80434 0.11308 2404 ft 176 kts 42°
2026-05-05 16:06 51.81315 0.12638 2166 ft 173 kts 43°
2026-05-05 16:06 51.82166 0.13921 1962 ft 162 kts 43°
2026-05-05 16:07 51.82972 0.15138 1716 ft 155 kts 43°
2026-05-05 16:07 51.83742 0.16300 1529 ft 152 kts 44°
2026-05-05 16:07 51.84507 0.17455 1317 ft 150 kts 43°
2026-05-05 16:07 51.85262 0.18597 1089 ft 147 kts 42°
2026-05-05 16:08 51.86009 0.19716 872 ft 147 kts 45°
2026-05-05 16:08 51.86755 0.20844 688 ft 146 kts 46°
2026-05-05 16:08 51.87493 0.21967 476 ft 148 kts 45°
2026-05-05 16:08 51.88226 0.23062 336 ft 134 kts 45°
2026-05-05 16:09 51.88813 0.23952 336 ft 95 kts 42°
2026-05-05 16:09 51.89157 0.24464 340 ft 41 kts 42°
2026-05-05 16:09 51.89244 0.24633 336 ft 18 kts 78°
2026-05-05 16:09 51.89203 0.24793 339 ft 7 kts 132°
2026-05-05 16:10 51.89170 0.24853 341 ft 7 kts 128°
2026-05-05 16:10 51.89156 0.24929 348 ft 7 kts 77°
2026-05-05 16:10 51.89188 0.24998 346 ft 8 kts 50°
2026-05-05 16:10 51.89222 0.25081 345 ft 8 kts 58°
2026-05-05 16:11 51.89236 0.25173 352 ft 9 kts 102°
2026-05-05 16:11 51.89187 0.25456 351 ft 0 kts 63°